Regional Weather Roundup
Issued by NWS Albany, NY

Home | Current Version | Previous Version | Text Only | Print | Product List | Glossary On
Versions: 1 2 3 4 5 6 7 8 9 10 11 12 13 14 15 16 17 18 19 20 21 22 23 24 25 26 27 28 29 30 31 32 33 34 35 36 37 38 39 40 41 42 43 44 45 46 47 48 49 50
000
ASUS41 KALY 312110
RWRALY

NEW YORK STATE HOURLY WEATHER ROUNDUP
NATIONAL WEATHER SERVICE ALBANY NY
400 PM EST SAT JAN 31 2015

NOTE: "FAIR" INDICATES FEW OR NO CLOUDS BELOW 12,000 FEET WITH NO
SIGNIFICANT WEATHER AND/OR NO OBSTRUCTIONS TO VISIBILITY.

NYZ032-033-038>043-046>054-057>066-NYZ062>081-312200-
EAST


CITY           SKY/WX    TMP DP  RH WIND       PRES   REMARKS
ALBANY         CLEAR     14  -4  44 W25G37    30.13S WCI  -5
GLENS FALLS    CLEAR     12  -4  48 E8        30.11S WCI   0
POUGHKEEPSIE   SUNNY     25  -4  28 NW15G25   30.10R WCI  13
NEWBURGH       SUNNY     21   1  42 NW23G30   30.09R WCI   5
MONTGOMERY     SUNNY     22   1  40 NW22G29   30.09R WCI   6
WHITE PLAINS   SUNNY     23  -2  33 NW20G32   30.05R WCI   8
ISLIP          SUNNY     24   0  35 NW20G29   30.04R WCI  10
NEW YORK CITY  MOSUNNY   26   3  37 NW22G32   30.10R WCI  12
CENTRAL PARK   SUNNY     26   0  32 NW9G21    30.12R WCI  17
$$

NYZ005>009-017-018-044>046-055-056-312200-
CENTRAL


CITY           SKY/WX    TMP DP  RH WIND       PRES   REMARKS
FULTON         CLOUDY    14   5  67 CALM      30.23F
SYRACUSE       CLOUDY    13   5  70 W7        30.23F WCI   3
ROME           CLOUDY    12  -1  56 W15       30.24S WCI  -4
ELMIRA         SUNNY     23   7  50 NW7       30.17F WCI  15
BINGHAMTON     CLOUDY    14   5  67 NW15G22   30.11F WCI  -1
MONTICELLO     SUNNY     16   1  53 W21G26    30.05S WCI  -2
$$

NYZ026>034-041>043-312200-
NORTH


CITY           SKY/WX    TMP DP  RH WIND       PRES   REMARKS
WATERTOWN      CLOUDY     9  -4  55 CALM      30.25S
FORT DRUM      NOT AVBL
MASSENA        CLEAR      5 -12  45 SW9       30.22F WCI  -9
SARANAC LAKE   CLEAR      5 -10  50 W7        30.02R WCI  -7
PLATTSBURGH    CLEAR     13 -10  35 NW10      30.14R WCI   0
$$

NYZ001>004-010>016-019>021-312200-
WEST


CITY           SKY/WX    TMP DP  RH WIND       PRES   REMARKS
NIAGARA FALLS  PTSUNNY   21  15  78 SW12      30.20S WCI   9
BUFFALO        PTSUNNY   20  12  71 SW16      30.20F WCI   6
DUNKIRK        CLOUDY    24  13  62 SW14      30.21F WCI  12
JAMESTOWN      CLOUDY    19  10  68 SW9       30.15F WCI   9
WELLSVILLE     MOSUNNY   20   6  55 NW14      30.10F WCI   7
ROCHESTER      PTSUNNY   21  11  65 W9        30.20F WCI  11
PENN YAN       MOSUNNY   16   7  67 E6        30.18F WCI   7
$$

             KEY
       WCI = WIND CHILL INDEX
       VSB = VISIBILITY
       HX  = HEAT INDEX
$$



USA.gov is the U.S. government's official web portal to all federal, state and local government web resources and services.